Benson, United Kingdom

11:26 PM GMT on November 24, 2017 (GMT +0000)
Benson Air Base

Weather History for EGUB - January, 2013

Change the Weather History Date:

Sunday, January 20, 2013

  Actual Average Record
Temperature  
Mean Temperature 30 °F -  
Max Temperature 31 °F 45 °F 55 °F (2002)
Min Temperature 28 °F 33 °F 17 °F (2016)
Degree Days  
Heating Degree Days 36    
Moisture  
Dew Point 27 °F    
Average Humidity 90    
Maximum Humidity 100    
Minimum Humidity 77    
Precipitation  
Precipitation 0.04 in - - ()
Sea Level Pressure  
Sea Level Pressure 29.38 in    
Wind  
Wind Speed 8 mph ()    
Max Wind Speed 14 mph    
Max Gust Speed -    
Visibility 3.7 miles    
Events      
Averages and records for this station are not official NWS values.
T = Trace of Precipitation, MM = Missing Value Source: Averaged Metar Reports

Daily Weather History Graph

Daily Weather History Graph

Search for Another Location

Airport or City:

Trip Planner

Search our weather history database for the weather conditions in past years. The results will help you decide how hot, cold, wet, or windy it might be!

Date:

Astronomy

Jan. 20, 2013 Rise Set
Actual Time 7:58 AM GMT 4:32 PM GMT
Civil Twilight 7:20 AM GMT 5:10 PM GMT
Nautical Twilight 6:39 AM GMT 5:51 PM GMT
Astronomical Twilight 5:59 AM GMT 6:31 PM GMT
Moon 11:28 AM GMT (1/20) 2:11 AM GMT (1/20)
Length of Visible Light 9h 49m
Length of Day
8h 33m
Waxing Gibbous, 64% of the Moon is Illuminated
Jan 20
Waxing Gibbous
Jan 27
Full
Feb 3
Last Quarter
Feb 10
New
Feb 17
First Quarter

Hourly Weather History & Observations

Time (GMT) Temp. Windchill Dew Point Humidity Pressure Visibility Wind Dir Wind Speed Gust Speed Precip Events Conditions
12:50 AM 30.2 °F 19.8 °F 24.8 °F 80% 29.47 in 6.2 mi NNE 13.8 mph - N/A   Overcast
1:50 AM 30.2 °F 20.8 °F 24.8 °F 80% 29.47 in 6.2 mi NNE 11.5 mph - N/A   Overcast
2:50 AM 29 °F - 25 °F 78% 29.48 in 6 mi NNE 11.5 mph - -   Overcast
2:50 AM 30.2 °F 20.8 °F 24.8 °F 80% 29.44 in 6.2 mi NNE 11.5 mph - N/A   Overcast
3:50 AM 30.2 °F 20.8 °F 24.8 °F 80% 29.44 in 6.2 mi NNE 11.5 mph - N/A   Overcast
4:50 AM 28.4 °F 19.1 °F 24.8 °F 86% 29.44 in 6.2 mi NNE 10.4 mph - N/A   Overcast
5:50 AM 29 °F - 25 °F 77% 29.46 in 6 mi NNE 8.1 mph - -   Overcast
5:50 AM 28.4 °F 20.4 °F 24.8 °F 86% 29.44 in 6.2 mi NNE 8.1 mph - N/A   Overcast
6:50 AM 28.4 °F 20.4 °F 24.8 °F 86% 29.44 in 5.6 mi North 8.1 mph - N/A   Overcast
7:50 AM 28.4 °F 23.3 °F 26.6 °F 93% 29.42 in - North 4.6 mph - N/A   Mostly Cloudy
8:50 AM 29 °F - 26 °F 86% 29.45 in 6 mi NE 9.2 mph - -   Overcast
8:50 AM 28.4 °F 19.7 °F 26.6 °F 93% 29.42 in 5.6 mi NE 9.2 mph - N/A   Overcast
9:50 AM 28.4 °F 19.1 °F 26.6 °F 93% 29.42 in - NNE 10.4 mph - N/A   Mostly Cloudy
10:50 AM 28.4 °F 22.2 °F 26.6 °F 93% 29.42 in 1.2 mi North 5.8 mph - N/A   Mostly Cloudy
11:50 AM 30 °F - 28 °F 89% 29.41 in 2 mi North 5.8 mph - -   Scattered Clouds
11:50 AM 30.2 °F 24.3 °F 28.4 °F 93% 29.39 in 1.6 mi North 5.8 mph - N/A   Mostly Cloudy
12:50 PM 30.2 °F 24.3 °F 28.4 °F 93% 29.36 in 1.1 mi North 5.8 mph - N/A   Mostly Cloudy
1:50 PM 30.2 °F 24.3 °F 28.4 °F 93% 29.36 in 1.0 mi North 5.8 mph - N/A   Mostly Cloudy
2:50 PM 32 °F - 30 °F 88% 29.37 in 1 mi North 5.8 mph - -   Scattered Clouds
2:50 PM 32.0 °F 26.4 °F 30.2 °F 93% 29.36 in 1.4 mi North 5.8 mph - N/A   Scattered Clouds
3:50 PM 32.0 °F 26.4 °F 30.2 °F 93% 29.36 in 2.5 mi North 5.8 mph - N/A   Mostly Cloudy
4:50 PM 30.2 °F 24.3 °F 28.4 °F 93% 29.33 in 1.7 mi North 5.8 mph - N/A   Mostly Cloudy
5:50 PM 30 °F - 29 °F 96% 29.35 in 2 mi NNW 5.8 mph - -   Partly Cloudy
5:50 PM 30.2 °F 24.3 °F 30.2 °F 100% 29.33 in 2.2 mi NNW 5.8 mph - N/A   Mostly Cloudy
6:50 PM 30.2 °F 24.3 °F 28.4 °F 93% 29.30 in 3.1 mi NNW 5.8 mph - N/A   Mostly Cloudy
7:50 PM 30.2 °F 25.4 °F 28.4 °F 93% 29.30 in 3.7 mi North 4.6 mph - N/A   Overcast
8:50 PM 30 °F - 29 °F 92% 29.32 in 3 mi NNW 2.3 mph - -   Scattered Clouds
8:50 PM 30.2 °F - 28.4 °F 93% 29.30 in 3.1 mi NNW 2.3 mph - N/A   Mostly Cloudy
9:50 PM 30.2 °F 26.7 °F 28.4 °F 93% 29.30 in 3.1 mi NW 3.5 mph - N/A   Overcast
10:50 PM 30.2 °F 26.7 °F 28.4 °F 93% 29.30 in 3.7 mi NW 3.5 mph - N/A   Overcast
11:50 PM 30 °F - 29 °F 93% 29.31 in 4 mi NW 3.5 mph - -   Scattered Clouds
11:50 PM 30.2 °F 26.7 °F 28.4 °F 93% 29.30 in 4.3 mi NW 3.5 mph - N/A   Mostly Cloudy